Weather History for KDEN - March, 2012

Change the Weather History Date:

Wednesday, March 21, 2012

  Actual Average Record
Temperature  
Mean Temperature 44 °F 42 °F  
Max Temperature 63 °F 56 °F 78 °F (1995)
Min Temperature 25 °F 28 °F 0 °F (1912)
Degree Days  
Heating Degree Days 21 23  
Month to date heating degree days 402 543  
Since 1 July heating degree days 4782 4982  
Cooling Degree Days 0 0  
Month to date cooling degree days 0 0  
Year to date cooling degree days 0 0  
Moisture  
Dew Point 13 °F    
Average Humidity 34    
Maximum Humidity 50    
Minimum Humidity 17    
Precipitation  
Precipitation 0.00 in 0.03 in 1.38 in (1944)
Month to date precipitation 0.03 0.54  
Year to date precipitation 1.19 1.32  
Snow  
Snow 0.00 in - - ()
Month to date snowfall T  
Since 1 July snowfall 54.6  
Snow Depth 0.00 in    
Sea Level Pressure  
Sea Level Pressure 29.94 in    
Wind  
Wind Speed 11 mph (WNW)    
Max Wind Speed 23 mph    
Max Gust Speed 30 mph    
Visibility 10 miles    
Events      
T = Trace of Precipitation, MM = Missing Value Source: NWS Daily Summary

Daily Weather History Graph

Daily Weather History Graph

Search for Another Location

Airport or City:

Trip Planner

Search our weather history database for the weather conditions in past years. The results will help you decide how hot, cold, wet, or windy it might be!

Date:

Astronomy

Mar. 21, 2012 Rise Set
Actual Time 6:59 AM MDT 7:12 PM MDT
Civil Twilight 6:32 AM MDT 7:39 PM MDT
Nautical Twilight 6:01 AM MDT 8:10 PM MDT
Astronomical Twilight 5:28 AM MDT 8:43 PM MDT
Moon 6:11 AM MDT (3/21) 6:41 PM MDT (3/21)
Length of Visible Light 13h 06m
Length of Day
12h 12m
Waning Crescent, 1% of the Moon is Illuminated
Mar 21
Waning Crescent
Mar 22
New
Mar 30
First Quarter
Apr 6
Full
Apr 13
Last Quarter

Hourly Weather History & Observations

Time (MDT) Temp. Windchill Dew Point Humidity Pressure Visibility Wind Dir Wind Speed Gust Speed Precip Events Conditions
12:53 AM 26.1 °F 14.5 °F 10.0 °F 51% 29.97 in 10.0 mi South 13.8 mph - N/A   Scattered Clouds
1:53 AM 27.0 °F 17.3 °F 10.9 °F 51% 29.95 in 10.0 mi South 10.4 mph - N/A   Scattered Clouds
2:53 AM 32.0 °F 22.5 °F 9.0 °F 38% 29.91 in 10.0 mi SSW 12.7 mph - N/A   Scattered Clouds
3:53 AM 30.0 °F 21.7 °F 8.1 °F 40% 29.90 in 10.0 mi SSW 9.2 mph - N/A   Scattered Clouds
4:53 AM 28.9 °F 19.8 °F 8.1 °F 41% 29.91 in 10.0 mi WSW 10.4 mph - N/A   Partly Cloudy
5:53 AM 27.0 °F 18.0 °F 8.1 °F 45% 29.95 in 10.0 mi WSW 9.2 mph - N/A   Partly Cloudy
6:53 AM 28.9 °F 19.8 °F 9.0 °F 43% 29.97 in 10.0 mi SW 10.4 mph - N/A   Partly Cloudy
7:53 AM 32.0 °F 23.6 °F 9.0 °F 38% 30.01 in 10.0 mi West 10.4 mph - N/A   Partly Cloudy
8:53 AM 39.0 °F 32.8 °F 10.0 °F 30% 30.01 in 10.0 mi West 9.2 mph - N/A   Partly Cloudy
9:53 AM 45.0 °F 39.7 °F 10.9 °F 25% 30.00 in 10.0 mi WNW 10.4 mph - N/A   Partly Cloudy
10:53 AM 50.0 °F - 9.0 °F 19% 29.99 in 10.0 mi NW 8.1 mph - N/A   Partly Cloudy
11:53 AM 55.9 °F - 16.0 °F 21% 29.96 in 10.0 mi North 19.6 mph 23.0 mph N/A   Scattered Clouds
12:53 PM 57.9 °F - 17.1 °F 20% 29.95 in 10.0 mi North 15.0 mph 24.2 mph N/A   Scattered Clouds
1:53 PM 59.0 °F - 18.0 °F 20% 29.92 in 10.0 mi North 16.1 mph 23.0 mph N/A   Mostly Cloudy
2:53 PM 61.0 °F - 18.0 °F 19% 29.87 in 10.0 mi Variable 4.6 mph - N/A   Scattered Clouds
3:53 PM 63.0 °F - 17.1 °F 17% 29.86 in 10.0 mi NNE 19.6 mph 26.5 mph N/A   Scattered Clouds
4:53 PM 61.0 °F - 16.0 °F 17% 29.87 in 10.0 mi NE 12.7 mph 24.2 mph N/A   Mostly Cloudy
5:53 PM 60.1 °F - 16.0 °F 18% 29.88 in 10.0 mi NE 19.6 mph 24.2 mph N/A   Mostly Cloudy
6:53 PM 55.0 °F - 15.1 °F 21% 29.91 in 10.0 mi NE 10.4 mph - N/A   Scattered Clouds
7:53 PM 48.9 °F - 16.0 °F 27% 29.93 in 10.0 mi NE 8.1 mph - N/A   Partly Cloudy
8:53 PM 46.9 °F - 16.0 °F 29% 29.95 in 10.0 mi East 3.5 mph - N/A   Partly Cloudy
9:53 PM 48.0 °F - 12.9 °F 24% 29.94 in 10.0 mi ESE 3.5 mph - N/A   Partly Cloudy
10:53 PM 41.0 °F 36.4 °F 12.0 °F 31% 29.95 in 10.0 mi WSW 6.9 mph - N/A   Partly Cloudy
11:53 PM 44.1 °F 40.1 °F 16.0 °F 32% 29.91 in 10.0 mi NW 6.9 mph - N/A   Partly Cloudy